Auburn, CA

12:57 AM PST on January 22, 2017 (GMT -0800)
Auburn Municipal

Weather History for KAUN - July, 2013

Change the Weather History Date:

Wednesday, July 10, 2013

  Actual Average Record
Temperature  
Mean Temperature 86 °F -  
Max Temperature 96 °F 89 °F 106 °F (1961)
Min Temperature 75 °F 61 °F 43 °F (1962)
Cooling Degree Days 20    
Growing Degree Days 36 (Base 50)    
Moisture  
Dew Point 42 °F    
Average Humidity 23    
Maximum Humidity 34    
Minimum Humidity 15    
Precipitation  
Precipitation 0.00 in - - ()
Sea Level Pressure  
Sea Level Pressure 29.95 in    
Wind  
Wind Speed 8 mph (SSE)    
Max Wind Speed 13 mph    
Max Gust Speed -    
Visibility 10 miles    
Events      
Averages and records for this station are not official NWS values.
T = Trace of Precipitation, MM = Missing Value Source: NWS Daily Summary

Daily Weather History Graph

Daily Weather History Graph

Search for Another Location

Airport or City:

Trip Planner

Search our weather history database for the weather conditions in past years. The results will help you decide how hot, cold, wet, or windy it might be!

Date:

Astronomy

Jul. 10, 2013 Rise Set
Actual Time 5:47 AM PDT 8:31 PM PDT
Civil Twilight 5:16 AM PDT 9:02 PM PDT
Nautical Twilight 4:36 AM PDT 9:42 PM PDT
Astronomical Twilight 3:52 AM PDT 10:26 PM PDT
Moon 8:12 AM PDT (7/10) 9:45 PM PDT (7/10)
Length of Visible Light 15h 46m
Length of Day
14h 43m
Waxing Crescent, 6% of the Moon is Illuminated
Jul 10
Waxing Crescent
Jul 15
First Quarter
Jul 22
Full
Jul 29
Last Quarter
Aug 6
New

Hourly Weather History & Observations

Time (PDT) Temp. Dew Point Humidity Pressure Visibility Wind Dir Wind Speed Gust Speed Precip Events Conditions
12:15 AM 78.8 °F 42.8 °F 28% 29.99 in 10.0 mi East 11.5 mph - N/A   Clear
12:35 AM 78.8 °F 42.8 °F 28% 29.99 in 10.0 mi East 10.4 mph - N/A   Clear
12:55 AM 78.8 °F 42.8 °F 28% 29.99 in 10.0 mi East 10.4 mph - N/A   Clear
1:15 AM 78.8 °F 42.8 °F 28% 29.98 in 10.0 mi East 8.1 mph - N/A   Clear
1:35 AM 77.0 °F 42.8 °F 29% 29.98 in 10.0 mi East 10.4 mph - N/A   Clear
1:55 AM 75.2 °F 44.6 °F 34% 29.98 in 10.0 mi SSE 4.6 mph - N/A   Clear
2:15 AM 75.2 °F 42.8 °F 31% 29.97 in 10.0 mi East 9.2 mph - N/A   Clear
2:35 AM 75.2 °F 42.8 °F 31% 29.97 in 10.0 mi East 9.2 mph - N/A   Clear
2:55 AM 75.2 °F 41.0 °F 29% 29.96 in 10.0 mi East 10.4 mph - N/A   Clear
3:15 AM 75.2 °F 41.0 °F 29% 29.96 in 10.0 mi East 10.4 mph - N/A   Clear
3:35 AM 75.2 °F 41.0 °F 29% 29.96 in 10.0 mi East 10.4 mph - N/A   Clear
3:55 AM 75.2 °F 39.2 °F 27% 29.95 in 10.0 mi East 9.2 mph - N/A   Clear
4:15 AM 75.2 °F 39.2 °F 27% 29.95 in 10.0 mi East 10.4 mph - N/A   Clear
4:35 AM 75.2 °F 39.2 °F 27% 29.95 in 10.0 mi East 9.2 mph - N/A   Clear
4:55 AM 75.2 °F 39.2 °F 27% 29.95 in 10.0 mi East 9.2 mph - N/A   Clear
5:15 AM 75.2 °F 39.2 °F 27% 29.95 in 10.0 mi East 10.4 mph - N/A   Clear
5:35 AM 75.2 °F 39.2 °F 27% 29.95 in 10.0 mi East 8.1 mph - N/A   Clear
5:55 AM 75.2 °F 39.2 °F 27% 29.95 in 10.0 mi East 8.1 mph - N/A   Clear
6:15 AM 75.2 °F 39.2 °F 27% 29.95 in 10.0 mi East 8.1 mph - N/A   Clear
6:35 AM 75.2 °F 39.2 °F 27% 29.95 in 10.0 mi East 6.9 mph - N/A   Clear
6:55 AM 75.2 °F 39.2 °F 27% 29.96 in 10.0 mi East 9.2 mph - N/A   Clear
7:15 AM 77.0 °F 41.0 °F 28% 29.97 in 10.0 mi ESE 5.8 mph - N/A   Clear
7:35 AM 78.8 °F 42.8 °F 28% 29.96 in 10.0 mi East 6.9 mph - N/A   Clear
7:55 AM 80.6 °F 42.8 °F 26% 29.97 in 10.0 mi East 6.9 mph - N/A   Clear
8:15 AM 82.4 °F 42.8 °F 25% 29.97 in 10.0 mi ESE 5.8 mph - N/A   Clear
8:35 AM 82.4 °F 44.6 °F 26% 29.98 in 10.0 mi ESE 5.8 mph - N/A   Clear
8:55 AM 84.2 °F 44.6 °F 25% 29.97 in 10.0 mi ESE 4.6 mph - N/A   Clear
9:15 AM 87.8 °F 44.6 °F 22% 29.98 in 10.0 mi Calm Calm - N/A   Clear
9:35 AM 87.8 °F 42.8 °F 21% 29.97 in 10.0 mi South 3.5 mph - N/A   Clear
9:55 AM 87.8 °F 44.6 °F 22% 29.97 in 10.0 mi Calm Calm - N/A   Clear
10:15 AM 89.6 °F 44.6 °F 21% 29.97 in 10.0 mi Calm Calm - N/A   Clear
10:35 AM 89.6 °F 46.4 °F 22% 29.97 in 10.0 mi SW 4.6 mph - N/A   Clear
10:55 AM 89.6 °F 48.2 °F 24% 29.97 in 10.0 mi SW 5.8 mph - N/A   Clear
11:15 AM 89.6 °F 50.0 °F 26% 29.97 in 10.0 mi SW 8.1 mph - N/A   Clear
11:35 AM 91.4 °F 51.8 °F 26% 29.97 in 10.0 mi WSW 6.9 mph - N/A   Clear
11:55 AM 91.4 °F 50.0 °F 24% 29.96 in 10.0 mi WSW 6.9 mph - N/A   Clear
12:15 PM 93.2 °F 48.2 °F 21% 29.96 in 10.0 mi SW 8.1 mph - N/A   Clear
12:35 PM 93.2 °F 46.4 °F 20% 29.96 in 10.0 mi SW 9.2 mph - N/A   Clear
12:55 PM 93.2 °F 44.6 °F 19% 29.96 in 10.0 mi SSW 8.1 mph - N/A   Clear
1:15 PM 93.2 °F 44.6 °F 19% 29.96 in 10.0 mi WSW 10.4 mph - N/A   Clear
1:35 PM 93.2 °F 44.6 °F 19% 29.97 in 10.0 mi South 9.2 mph - N/A   Clear
1:55 PM 95.0 °F 44.6 °F 18% 29.96 in 10.0 mi SW 11.5 mph - N/A   Clear
2:15 PM 95.0 °F 44.6 °F 18% 29.96 in 10.0 mi WSW 11.5 mph - N/A   Clear
2:35 PM 93.2 °F 46.4 °F 20% 29.96 in 10.0 mi South 5.8 mph - N/A   Clear
2:55 PM 95.0 °F 44.6 °F 18% 29.95 in 10.0 mi SSW 8.1 mph - N/A   Clear
3:15 PM 95.0 °F 44.6 °F 18% 29.95 in 10.0 mi WSW 11.5 mph - N/A   Clear
3:35 PM 96.8 °F 44.6 °F 17% 29.94 in 10.0 mi WSW 10.4 mph - N/A   Clear
3:55 PM 95.0 °F 44.6 °F 18% 29.93 in 10.0 mi WSW 9.2 mph - N/A   Clear
4:15 PM 95.0 °F 44.6 °F 18% 29.93 in 10.0 mi WSW 9.2 mph - N/A   Clear
4:35 PM 95.0 °F 42.8 °F 16% 29.92 in 10.0 mi WSW 12.7 mph - N/A   Clear
4:55 PM 93.2 °F 42.8 °F 17% 29.92 in 10.0 mi SSW 5.8 mph - N/A   Clear
5:15 PM 96.8 °F 42.8 °F 16% 29.91 in 10.0 mi SW 8.1 mph - N/A   Clear
5:35 PM 95.0 °F 42.8 °F 16% 29.91 in 10.0 mi South 6.9 mph - N/A   Clear
5:55 PM 93.2 °F 42.8 °F 17% 29.90 in 10.0 mi SW 4.6 mph - N/A   Clear
6:15 PM 93.2 °F 42.8 °F 17% 29.90 in 10.0 mi SSW 8.1 mph - N/A   Clear
6:35 PM 91.4 °F 41.0 °F 17% 29.90 in 10.0 mi SW 6.9 mph - N/A   Clear
6:55 PM 91.4 °F 39.2 °F 16% 29.90 in 10.0 mi SSW 8.1 mph - N/A   Clear
7:15 PM 91.4 °F 37.4 °F 15% 29.90 in 10.0 mi SW 10.4 mph - N/A   Clear
7:35 PM 89.6 °F 37.4 °F 16% 29.90 in 10.0 mi SW 8.1 mph - N/A   Clear
7:55 PM 89.6 °F 37.4 °F 16% 29.90 in 10.0 mi SW 6.9 mph - N/A   Clear
8:15 PM 87.8 °F 37.4 °F 17% 29.91 in 10.0 mi SSW 8.1 mph - N/A   Clear
8:35 PM 86.0 °F 39.2 °F 19% 29.91 in 10.0 mi SSW 6.9 mph - N/A   Clear
8:55 PM 84.2 °F 37.4 °F 19% 29.92 in 10.0 mi South 6.9 mph - N/A   Clear
9:15 PM 82.4 °F 37.4 °F 20% 29.92 in 10.0 mi South 5.8 mph - N/A   Clear
9:35 PM 82.4 °F 39.2 °F 21% 29.92 in 10.0 mi South 4.6 mph - N/A   Clear
9:55 PM 80.6 °F 39.2 °F 23% 29.93 in 10.0 mi SSE 3.5 mph - N/A   Clear
10:15 PM 80.6 °F 39.2 °F 23% 29.93 in 10.0 mi SE 3.5 mph - N/A   Clear
10:35 PM 78.8 °F 39.2 °F 24% 29.94 in 10.0 mi ESE 5.8 mph - N/A   Clear
10:55 PM 78.8 °F 37.4 °F 23% 29.94 in 10.0 mi ESE 6.9 mph - N/A   Clear
11:15 PM 78.8 °F 37.4 °F 23% 29.94 in 10.0 mi ESE 6.9 mph - N/A   Clear
11:35 PM 77.0 °F 37.4 °F 24% 29.94 in 10.0 mi ESE 5.8 mph - N/A   Clear
11:55 PM 75.2 °F 37.4 °F 25% 29.93 in 10.0 mi ESE 8.1 mph - N/A   Clear